Home > Weather > Hamilton > Past weeks

Flag for Canada Past Weather in Hamilton, Ontario, Canada — Yesterday and Last 2 Weeks

Now
72 °F

Partly sunny.


Feels Like: 74 °F
Forecast: 68 / 90 °F
Wind: 8 mph from Northeast

Location: Hamilton Airport

Current Time: Jul 24, 2016 at 8:52:10 AM

Latest Report: Jul 24, 2016 at 8:00 AM


Visibility: 15 mi

Pressure: 30.01 "Hg

Humidity: 73%

Dew Point: 63 °F

Location of HamiltonLocation

Past Weather in Hamilton — Graph

°F

Hamilton Temperature Yesterday

Maximum temperature yesterday: 90 °F (at 2:00 PM)
Minimum temperature yesterday: 68 °F (at 2:00 AM)
Average temperature yesterday: 80 °F

High & Low Weather Summary for the Past Weeks

 TemperatureHumidityPressure
High91 °F (Jul 13, 4:00 PM)100% (Jul 9, 7:00 AM)30.29 "Hg (Jul 9, 7:00 AM)
Low50 °F (Jul 17, 6:00 AM)30% (Jul 20, 4:00 PM)29.75 "Hg (Jul 9, 7:00 AM)
Average73 °F66%30.00 "Hg
* Reported Jul 9 7:00 AM — Jul 24 7:00 AM, Hamilton, Weather by CustomWeather, © 2016

Note: Actual official high and low records may vary slightly from our data, if they occured in-between our weather recording intervals... More about our weather records

Advertising

Hamilton Weather History for the Previous 24 Hours

Scroll right to see more
 ConditionsComfort  
Time TempWeatherWind HumidityBarometerVisibility
7:00 AM
Sun, Jul 24
70 °FPassing clouds.7 mph73%30.00 "Hg15 mi
6:00 AM66 °FPassing clouds.8 mph78%30.01 "Hg15 mi
5:00 AM68 °FPassing clouds.6 mph73%30.01 "Hg15 mi
4:00 AM68 °FPassing clouds.8 mph73%29.99 "Hg15 mi
3:00 AM70 °FPassing clouds.8 mph69%29.99 "Hg15 mi
2:00 AM70 °FPassing clouds.7 mph64%29.99 "Hg15 mi
1:00 AM72 °FPassing clouds.6 mph61%30.00 "Hg15 mi
12:00 AM73 °FPassing clouds.6 mph57%30.00 "Hg15 mi
11:00 PM
Sat, Jul 23
72 °FPassing clouds.8 mph61%29.99 "Hg15 mi
10:00 PM77 °FPassing clouds.12 mph54%29.97 "Hg15 mi
9:00 PM81 °FPartly sunny.7 mph45%29.95 "Hg15 mi
8:00 PM84 °FPartly sunny.8 mph40%29.93 "Hg15 mi
7:00 PM88 °FScattered clouds.14 mph35%29.92 "Hg15 mi
6:00 PM90 °FScattered clouds.8 mph33%29.93 "Hg15 mi
5:00 PM90 °FScattered clouds.10 mph31%29.93 "Hg15 mi
4:00 PM90 °FPartly sunny.8 mph33%29.93 "Hg15 mi
3:00 PM88 °FPartly sunny.13 mph33%29.94 "Hg15 mi
2:00 PM90 °FBroken clouds.12 mph36%29.94 "Hg15 mi
1:00 PM88 °FBroken clouds.14 mph35%29.95 "Hg15 mi
12:00 PM86 °FPartly sunny.7 mph43%29.95 "Hg15 mi
11:00 AM84 °FPartly sunny.13 mph43%29.96 "Hg15 mi
10:00 AM81 °FPassing clouds.7 mph54%29.95 "Hg15 mi
8:00 AM72 °FScattered clouds.6 mph73%29.93 "Hg15 mi
Weather by CustomWeather, © 2016

See weather overviewHow to use our weather pages